#timestamp,LO_Frequency,Hit,StdDev 
1572541215.8,286046998.7,N
1572541235.7,286046999.9,N
1572541255.5,286047000.1,N
1572541275.3,286047002.7,N
1572541295.2,286047000.7,N
1572541315.9,286047002.6,N
1572541335.7,286047003.8,N
1572541355.6,286047003.6,N
1572541375.4,286047002.7,N
1572541395.3,286047000.4,N
1572541415.1,286047002.4,N
1572541416.0,286047002.4,N
1572541435.8,286047003.9,N
1572541455.7,286047005.3,N
1572541475.5,286047006.7,N
1572541495.3,286047008.8,N
1572541515.2,286047006.8,N
1572541535.0,286047005.7,N
1572541535.9,286047005.7,N
1572541555.8,286047011.9,Y
1572541575.6,286047003.4,P
1572541595.4,286047003.9,P
1572541615.3,286047001.7,N
1572541635.1,286047002.4,N
1572541655.9,286047004.3,Y
1572541675.7,286047000.5,P
1572541695.5,286047000.8,N
1572541715.4,286047001.4,N
1572541735.2,286046998.2,N
1572541755.0,286046998.8,N
1572541756.0,286046998.8,N
1572541775.8,286046998.7,N
1572541795.6,286046999.3,N
1572541815.5,286046998.2,N
1572541835.3,286046998.3,N
1572541855.1,286046999.7,N
1572541875.9,286047000.2,N
1572541895.7,286047001.9,N
1572541915.6,286047003.5,N
1572541935.4,286047004.2,N
1572541955.2,286047005.5,N
1572542005.1,286047004.5,E
1572542015.0,286047005.6,N
1572542015.9,286047005.6,P
1572542035.8,286047001.3,P
1572542055.6,286047003.5,N
1572542075.4,286047004.0,N
1572542095.3,286047003.6,N
1572542115.1,286047003.1,N
1572542135.9,286047003.8,N
1572542155.7,286047003.3,N
1572542175.5,286047007.6,Y
1572542195.4,286047001.4,P
1572542215.2,286047001.4,N
1572542235.0,286047004.4,P
1572542236.0,286047004.4,Y
1572542255.8,286047000.3,P
1572542275.6,286047002.8,N
1572542295.5,286047001.7,N
1572542315.3,286047002.1,N
1572542335.1,286047002.6,N
1572542355.9,286047004.0,Y
1572542375.7,286047004.1,P
1572542395.6,286047005.5,P
1572542415.4,286047005.6,P
1572542435.2,286047003.5,N
1572542455.1,286047001.8,N
1572542456.0,286047001.8,N
1572542475.8,286047000.1,N
1572542495.6,286047002.8,N
1572542515.5,286047001.7,N
1572542535.3,286046999.9,N
1572542555.2,286046999.8,N
1572542575.9,286047002.8,N
1572542595.7,286047001.2,N
1572542615.6,286047000.9,N
1572542635.4,286047000.8,N
1572542655.2,286047002.3,N
1572542675.1,286047004.3,N
1572542676.0,286047004.3,N
1572542695.8,286047004.2,N
1572542715.6,286047004.2,N
1572542735.5,286047011.9,Y
1572542755.3,286047002.1,P
1572542775.2,286047001.4,P
1572542795.9,286047005.9,P
1572542815.7,286047007.6,Y
1572542835.6,286047003.6,P
1572542855.4,286047006.0,P
1572542875.3,286047011.9,P
1572542895.1,286047005.2,N
1572542896.0,286047005.2,N
1572542915.8,286047009.2,Y
1572542935.7,286047001.8,P
1572542955.5,286047002.5,N
1572542975.3,286047001.9,N
1572542995.2,286047003.5,N
1572543015.0,286047001.6,N
1572543015.9,286047001.6,N
1572543035.8,286047002.2,N
1572543055.6,286047001.0,N
1572543075.4,286047002.7,N
1572543095.3,286047002.8,N
1572543115.1,286047001.3,N
1572543135.8,286047004.3,Y
1572543155.7,286047001.8,P
1572543175.5,286047000.2,N
1572543195.4,286046996.9,P
1572543215.2,286046997.5,N
1572543235.0,286046996.5,N
1572543235.9,286046996.5,N
1572543255.8,286046996.8,N
1572543275.6,286046995.5,N
1572543295.4,286046997.8,N
1572543315.3,286046996.7,N
1572543335.1,286046996.7,N
1572543355.9,286047000.7,N
1572543375.7,286047002.7,N
1572543395.5,286046999.7,N
1572543415.4,286047001.9,N
1572543435.2,286047002.8,N
1572543455.0,286047002.3,N
1572543455.9,286047002.3,N
1572543475.8,286047001.5,N
1572543495.6,286047002.9,N
1572543515.5,286047004.1,N
1572543535.3,286047004.9,N
1572543555.1,286047006.3,N
1572543575.9,286047009.1,N
1572543595.7,286047007.9,N
1572543615.5,286047007.7,N
1572543635.4,286047009.0,N
1572543655.2,286047008.4,N
1572543675.1,286047006.7,N
1572543676.0,286047006.7,N
1572543695.8,286047010.6,N
1572543715.6,286047010.5,N
1572543735.5,286047010.6,N
1572543755.3,286047013.4,N
1572543775.1,286047017.0,Y
1572543795.9,286047011.5,P
1572543815.7,286047013.5,P
1572543835.6,286047015.5,P
1572543855.4,286047015.1,Y
1572543875.2,286047003.9,P
1572543895.1,286047003.6,N
1572543896.0,286047003.6,N
1572543915.8,286047003.8,N
1572543935.7,286047000.7,N
1572543955.5,286047000.8,N
1572543975.3,286046999.5,N
1572543995.2,286046995.3,N
1572544015.0,286046996.4,N
1572544015.9,286046996.4,N
1572544035.8,286046992.1,N
1572544055.6,286046990.4,N
1572544075.4,286046988.8,N
1572544095.3,286046985.5,N
1572544115.1,286046988.1,N
1572544135.8,286046982.6,N
1572544155.7,286046982.8,N
1572544175.5,286046981.2,N
1572544195.3,286046983.3,N
1572544215.2,286046983.4,N
1572544235.0,286046984.6,N
1572544235.9,286046984.6,N
1572544255.8,286046987.0,N
1572544275.6,286046987.4,N
1572544295.4,286046989.6,N
1572544315.3,286046989.0,N
1572544335.1,286046989.5,N
1572544355.8,286046991.4,N
1572544375.7,286046989.1,N
1572544395.5,286046990.3,N
1572544415.4,286046988.5,N
1572544435.2,286046989.4,N
1572544455.0,286046989.3,N
1572544455.9,286046989.3,N
1572544475.8,286046988.9,N
1572544495.6,286046993.2,N
1572544515.4,286046990.2,N
1572544535.3,286046992.9,N
1572544555.1,286046994.8,N
1572544575.9,286046998.0,N
1572544595.7,286046996.8,N
1572544615.5,286046999.3,N
1572544635.4,286046999.0,N
1572544655.2,286046997.1,N
1572544675.0,286046999.5,N
1572544675.9,286046999.5,N
1572544695.8,286046996.6,N
1572544715.6,286046998.5,N
1572544735.5,286046998.2,N
1572544755.3,286047000.2,N
1572544775.1,286047002.7,N
1572544795.9,286047004.1,N
